Regional Weather Roundup
Issued by NWS

Home | Current Version | Previous Version | Graphics & Text | Print | Product List | Glossary On
Versions: 1 2 3 4 5 6 7 8 9 10 11 12 13 14 15 16 17 18 19 20 21 22 23 24 25 26 27
000
ASUS45 KSLC 161910
RWRUT

UTAH REGIONAL WEATHER ROUNDUP
NATIONAL WEATHER SERVICE SALT LAKE CITY UT
100 PM MDT WED APR 16 2014

UTZ001>011-023>025-162000-

NORTHERN UTAH

CITY           SKY/WX    TMP DP  RH WIND       PRES   REMARKS
HILL AFB       MOSUNNY   51  13  21 W10       30.02S
LOGAN          SUNNY     50  17  27 S3        30.02S
OGDEN          SUNNY     53  15  22 MISG      30.02S
PROVO AIRPORT  PTSUNNY   54  21  28 SW8       30.02S
SALT LAKE CITY PTSUNNY   54  17  23 NW3       30.02S
VERNAL         MOSUNNY   53  12  19 VRB5      29.97F
WENDOVER       SUNNY     57  16  19 SE13      30.01F
HEBER CITY     PTSUNNY   54   9  16 CALM      29.97F
WEST JORDAN    SUNNY     54  25  32 NW17G25   30.02F

$$

UTZ012>022-026-027-162000-

SOUTHERN UTAH

CITY           SKY/WX    TMP DP  RH WIND       PRES   REMARKS
BRYCE CANYON   CLOUDY    44  25  47 NW15G25   30.04R
CEDAR CITY     CLOUDY    57  22  25 NE6G16    29.98F
MILFORD        PTSUNNY   59  16  18 NE15G21   29.99F
MOAB/CYNLANDS  SUNNY     59  11  15 CALM      29.90F
PRICE          CLOUDY    55   4  12 NW10      29.95S
ST GEORGE      MOCLDY    70  25  18 SE5       29.89F
KANAB            N/A     63  19  19 S3        29.96S

$$

REGIONAL REPORTS     COLORADO/ARIZONA

CITY           SKY/WX    TMP DP  RH WIND       PRES   REMARKS
CRAIG, CO      PTSUNNY   48  10  21 W8G17     29.99F
GRAND JUNCTION PTSUNNY   55   9  16 CALM      29.93F
RIFLE          PTSUNNY   53   7  15 NW3       29.95F
MONTROSE       CLOUDY    53  15  22 VRB3      29.96F
CORTEZ         SUNNY     62  18  18 W14G21    29.91S
PAGE, AZ       CLOUDY    65  18  16 N10       29.91S
GRAND CANYON   CLOUDY    60   8  12 VRB5      29.99S
KINGMAN        SUNNY     79  11   7 S9        29.85F
FLAGSTAFF      MOSUNNY   64   9  11 W12G21    29.98F

$$

REGIONAL REPORTS    NEVADA/IDAHO/WYOMING

CITY           SKY/WX    TMP DP  RH WIND       PRES   REMARKS
LAS VEGAS, NV  MOSUNNY   78  12   8 VRB5      29.78F
ELY            PTSUNNY   49  26  41 VRB3      30.04F
ELKO           CLOUDY    51  24  34 VRB3      30.04F
POCATELLO, ID  MOSUNNY   51  15  23 NW13G20   30.04F
BURLEY         SUNNY     53  17  24 SW10      30.02F
EVANSTON, WY   MOSUNNY   46   9  22 SW20      30.00S
ROCK SPRINGS   SUNNY     47  -3  12 W14G24    29.97F

$$



USA.gov is the U.S. government's official web portal to all federal, state and local government web resources and services.